Tracking 18852 objects as of 24-Nov-2017
HD Live streaming from Space Station
objects crossing your sky now

FENGYUN 1C DEB

Track FENGYUN 1C DEB now!
10-day predictions


NORAD ID: 37447
Int'l Code: 1999-025EHR
Perigee: 833.0 km
Apogee: 894.4 km
Inclination: 99.1 °
Period: 102.1 minutes
Semi major axis: 7234 km
RCS: 0.0073 m2 (small)
Launch date: May 10, 1999
Source: People's Republic of China (PRC)
Launch site: Taiyaun Space Center, China (TSC)

Note: This is SATELLITE DEBRIS
aabbcc
Your satellite tracking list
Your tracking list is empty




NASA's NSSDC Master Catalog

Two Line Element Set (TLE):
1 37447U 99025EHR 17322.26547661  .00000468  00000-0  28482-3 0  9997
2 37447  99.1175 335.4508 0042432 270.1913 148.6774 14.10815668440932
Source of the keplerian elements: AFSPC